Total_Precipitation_Accumulation
0.18 0.20 0.26 0.48 0.53 0.45 0.48 0.49 0.56 0.51 0.54 0.63 0.69 0.74 0.77 0.78 0.71 0.64 0.63 0.59 0.54 0.50 0.49 0.49 0.54 0.63 0.76 1.07 1.29 1.29 1.26 1.11 1.02 0.99 0.97 0.93 0.93 0.98 0.91 0.79 0.73 0.71 0.79 0.86
0.16 0.16 0.18 0.21 0.16 0.16 0.20 0.26 0.34 0.40 0.51 0.55 0.59 0.61 0.69 0.68 0.53 0.52 0.54 0.53 0.51 0.46 0.41 0.37 0.37 0.44 0.56 0.76 0.96 1.05 1.07 1.00 0.89 0.89 0.86 0.78 0.82 0.94 0.97 0.84 0.76 0.72 0.71 0.68
0.23 0.18 0.20 0.18 0.11 0.18 0.22 0.25 0.30 0.43 0.56 0.60 0.62 0.69 1.02 1.04 0.72 0.57 0.57 0.52 0.53 0.51 0.47 0.43 0.41 0.42 0.45 0.53 0.67 0.77 0.81 0.78 0.68 0.70 0.83 0.86 0.90 0.89 0.81 0.72 0.74 0.73 0.65 0.58
0.31 0.30 0.35 0.19 0.11 0.17 0.21 0.24 0.25 0.29 0.32 0.37 0.49 0.63 0.80 0.88 0.74 0.61 0.58 0.51 0.50 0.49 0.43 0.42 0.42 0.43 0.48 0.49 0.52 0.56 0.55 0.54 0.50 0.57 0.74 0.78 0.74 0.71 0.65 0.63 0.67 0.72 0.65 0.60
0.39 0.47 0.36 0.15 0.11 0.13 0.15 0.17 0.16 0.19 0.18 0.20 0.24 0.25 0.26 0.29 0.33 0.34 0.32 0.29 0.31 0.35 0.32 0.30 0.31 0.34 0.36 0.35 0.39 0.39 0.38 0.39 0.46 0.49 0.51 0.52 0.50 0.51 0.56 0.61 0.62 0.57 0.60 0.73
0.45 0.50 0.37 0.17 0.10 0.09 0.14 0.23 0.15 0.15 0.14 0.12 0.15 0.21 0.18 0.21 0.16 0.12 0.14 0.16 0.22 0.32 0.35 0.29 0.29 0.33 0.32 0.33 0.36 0.36 0.36 0.40 0.43 0.47 0.50 0.49 0.49 0.49 0.52 0.56 0.61 0.61 0.64 0.76
0.38 0.48 0.28 0.14 0.12 0.11 0.22 0.22 0.11 0.09 0.08 0.07 0.09 0.12 0.12 0.16 0.15 0.11 0.14 0.16 0.20 0.26 0.33 0.31 0.30 0.31 0.31 0.32 0.35 0.41 0.43 0.42 0.42 0.45 0.49 0.53 0.54 0.53 0.52 0.53 0.57 0.63 0.65 0.68
0.32 0.41 0.32 0.14 0.14 0.20 0.20 0.12 0.09 0.09 0.08 0.08 0.08 0.08 0.09 0.11 0.13 0.11 0.12 0.14 0.17 0.21 0.30 0.32 0.33 0.34 0.37 0.36 0.37 0.42 0.45 0.43 0.43 0.47 0.49 0.52 0.59 0.58 0.56 0.57 0.56 0.57 0.62 0.67
0.32 0.30 0.20 0.15 0.16 0.17 0.17 0.14 0.12 0.11 0.09 0.08 0.08 0.08 0.09 0.10 0.15 0.10 0.10 0.15 0.17 0.19 0.26 0.32 0.35 0.39 0.41 0.40 0.39 0.41 0.42 0.46 0.48 0.50 0.49 0.48 0.52 0.55 0.56 0.57 0.57 0.58 0.61 0.66
0.24 0.17 0.13 0.15 0.16 0.15 0.14 0.13 0.13 0.13 0.14 0.12 0.11 0.10 0.11 0.11 0.14 0.12 0.10 0.10 0.13 0.15 0.20 0.29 0.35 0.37 0.43 0.44 0.44 0.45 0.47 0.51 0.54 0.55 0.54 0.52 0.53 0.57 0.60 0.60 0.60 0.58 0.59 0.66
0.22 0.14 0.11 0.12 0.14 0.16 0.14 0.13 0.13 0.13 0.15 0.15 0.15 0.15 0.13 0.13 0.13 0.12 0.14 0.14 0.13 0.14 0.17 0.23 0.30 0.34 0.41 0.45 0.49 0.48 0.49 0.55 0.60 0.60 0.59 0.59 0.60 0.60 0.60 0.59 0.62 0.60 0.61 0.65
0.19 0.14 0.13 0.12 0.12 0.14 0.17 0.15 0.13 0.12 0.13 0.14 0.15 0.15 0.14 0.14 0.13 0.14 0.14 0.14 0.15 0.15 0.16 0.18 0.22 0.26 0.32 0.36 0.43 0.49 0.52 0.52 0.52 0.58 0.61 0.58 0.57 0.57 0.60 0.61 0.65 0.62 0.59 0.62
0.10 0.10 0.10 0.10 0.11 0.12 0.15 0.15 0.12 0.11 0.12 0.13 0.15 0.15 0.15 0.15 0.15 0.15 0.15 0.14 0.17 0.17 0.16 0.16 0.16 0.20 0.25 0.29 0.35 0.44 0.48 0.50 0.50 0.50 0.51 0.54 0.56 0.55 0.59 0.59 0.57 0.57 0.58 0.60
0.07 0.08 0.10 0.09 0.10 0.10 0.12 0.13 0.11 0.11 0.12 0.13 0.15 0.17 0.19 0.19 0.19 0.18 0.18 0.16 0.19 0.19 0.19 0.17 0.17 0.19 0.22 0.26 0.31 0.36 0.42 0.53 0.54 0.51 0.52 0.54 0.55 0.56 0.59 0.65 0.65 0.58 0.56 0.56
0.06 0.06 0.08 0.09 0.08 0.09 0.09 0.12 0.13 0.13 0.15 0.14 0.14 0.18 0.21 0.20 0.20 0.21 0.21 0.19 0.17 0.18 0.22 0.22 0.22 0.22 0.22 0.23 0.26 0.29 0.35 0.44 0.51 0.53 0.54 0.56 0.57 0.56 0.58 0.62 0.65 0.67 0.65 0.62
0.09 0.07 0.07 0.07 0.08 0.09 0.10 0.14 0.16 0.18 0.18 0.18 0.17 0.20 0.21 0.21 0.22 0.23 0.25 0.23 0.21 0.22 0.22 0.23 0.25 0.26 0.26 0.25 0.27 0.28 0.32 0.43 0.50 0.54 0.55 0.55 0.58 0.56 0.56 0.57 0.59 0.60 0.62 0.64
0.16 0.13 0.11 0.11 0.10 0.09 0.09 0.12 0.15 0.18 0.19 0.19 0.21 0.22 0.23 0.22 0.22 0.23 0.25 0.26 0.25 0.23 0.23 0.22 0.23 0.24 0.26 0.25 0.26 0.26 0.30 0.37 0.46 0.51 0.52 0.52 0.52 0.54 0.54 0.55 0.56 0.58 0.59 0.66
0.17 0.16 0.14 0.14 0.12 0.10 0.09 0.09 0.11 0.16 0.18 0.17 0.18 0.19 0.20 0.22 0.22 0.23 0.24 0.25 0.26 0.25 0.22 0.21 0.21 0.21 0.22 0.23 0.25 0.27 0.31 0.34 0.39 0.44 0.52 0.54 0.52 0.50 0.51 0.50 0.50 0.54 0.55 0.59
0.14 0.14 0.13 0.11 0.11 0.10 0.10 0.10 0.11 0.12 0.13 0.14 0.15 0.15 0.16 0.19 0.20 0.20 0.21 0.22 0.24 0.23 0.22 0.20 0.24 0.23 0.22 0.24 0.27 0.29 0.34 0.37 0.40 0.43 0.46 0.54 0.58 0.53 0.52 0.52 0.53 0.55 0.56 0.55
0.10 0.10 0.10 0.10 0.10 0.11 0.11 0.10 0.11 0.12 0.13 0.13 0.13 0.13 0.13 0.15 0.17 0.20 0.19 0.19 0.22 0.24 0.22 0.21 0.20 0.19 0.19 0.23 0.30 0.33 0.39 0.42 0.42 0.43 0.44 0.47 0.51 0.55 0.59 0.58 0.56 0.57 0.58 0.58
0.12 0.11 0.10 0.10 0.09 0.09 0.11 0.11 0.11 0.10 0.10 0.12 0.13 0.13 0.13 0.14 0.17 0.20 0.21 0.21 0.21 0.22 0.21 0.23 0.20 0.21 0.23 0.28 0.31 0.32 0.39 0.43 0.45 0.47 0.48 0.51 0.53 0.55 0.60 0.66 0.64 0.62 0.64 0.63
0.12 0.12 0.10 0.10 0.09 0.08 0.08 0.09 0.09 0.09 0.08 0.09 0.11 0.12 0.13 0.15 0.15 0.18 0.21 0.25 0.27 0.29 0.24 0.22 0.22 0.28 0.35 0.42 0.37 0.35 0.37 0.42 0.48 0.50 0.52 0.56 0.58 0.58 0.60 0.65 0.68 0.68 0.66 0.66
0.14 0.13 0.12 0.11 0.11 0.10 0.08 0.08 0.08 0.08 0.08 0.09 0.11 0.14 0.17 0.18 0.18 0.20 0.24 0.27 0.28 0.31 0.29 0.30 0.36 0.39 0.42 0.41 0.40 0.39 0.38 0.41 0.45 0.48 0.52 0.58 0.61 0.63 0.63 0.65 0.68 0.71 0.71 0.69
0.17 0.16 0.16 0.15 0.15 0.14 0.13 0.11 0.10 0.10 0.10 0.10 0.12 0.15 0.18 0.21 0.22 0.24 0.27 0.32 0.35 0.35 0.31 0.34 0.40 0.44 0.45 0.40 0.38 0.38 0.40 0.43 0.46 0.48 0.51 0.55 0.58 0.59 0.63 0.67 0.72 0.76 0.79 0.81
0.19 0.20 0.21 0.22 0.23 0.23 0.21 0.18 0.16 0.16 0.16 0.16 0.16 0.17 0.18 0.20 0.23 0.28 0.31 0.32 0.36 0.36 0.32 0.34 0.39 0.42 0.38 0.36 0.37 0.38 0.38 0.42 0.48 0.49 0.50 0.53 0.56 0.59 0.63 0.65 0.73 0.82 0.86 0.87
0.22 0.22 0.25 0.26 0.25 0.25 0.24 0.23 0.24 0.24 0.25 0.24 0.22 0.21 0.21 0.21 0.22 0.25 0.29 0.31 0.34 0.37 0.33 0.32 0.32 0.34 0.34 0.35 0.36 0.39 0.39 0.40 0.43 0.46 0.48 0.53 0.54 0.56 0.59 0.62 0.66 0.75 0.83 0.85
0.31 0.28 0.27 0.30 0.31 0.29 0.28 0.30 0.34 0.35 0.36 0.36 0.35 0.32 0.30 0.28 0.27 0.26 0.26 0.26 0.28 0.32 0.34 0.35 0.35 0.35 0.37 0.37 0.37 0.39 0.42 0.44 0.46 0.48 0.51 0.54 0.58 0.62 0.66 0.68 0.70 0.74 0.78 0.80